Location: Alafon
(8.4500°N, 4.2333°E)
Time: 07:49:04
(UTC+00:00)

Explorer 7 - All Passes

Search period start: 24 July 2021 00:00
Search period end: 03 August 2021 00:00
Orbit: 484 x 677 km, 50.3° (Epoch: 23 July)

Date Brightness Start Highest point End Pass type
(mag) Time Alt. Az. Time Alt. Az. Time Alt. Az.
24 Jul - 04:35:03 10° SSW 04:38:27 33° SE 04:41:53 10° ENE visible
24 Jul - 06:17:36 10° WNW 06:18:49 11° NW 06:20:04 10° NNW daylight
24 Jul - 14:52:56 10° N 14:56:21 19° NE 14:59:47 10° E daylight
24 Jul - 16:32:22 10° WNW 16:36:50 37° SW 16:41:18 10° SSE daylight
25 Jul - 04:38:58 10° SW 04:42:42 82° SE 04:46:29 10° NE visible
25 Jul - 14:56:19 10° NNW 15:00:41 35° NE 15:05:08 10° ESE daylight
25 Jul - 16:37:36 10° W 16:41:05 19° SW 16:44:33 10° S daylight
26 Jul - 04:43:27 10° WSW 04:46:58 41° NW 04:50:33 10° NNE visible
26 Jul - 15:00:12 10° NNW 15:04:58 68° NE 15:09:50 10° SE daylight
27 Jul - 03:08:24 10° S 03:11:04 19° SE 03:13:44 10° E visible
27 Jul - 04:48:35 10° W 04:51:18 19° NW 04:54:04 10° N visible
27 Jul - 13:27:02 10° NNE 13:28:40 12° NE 13:30:19 10° ENE daylight
27 Jul - 15:04:29 10° NW 15:09:14 62° SW 15:14:04 10° SSE daylight
28 Jul - 03:11:46 10° SSW 03:15:19 41° SE 03:18:51 10° NE visible
28 Jul - 13:29:26 10° N 13:33:03 22° NE 13:36:45 10° E daylight
28 Jul - 15:09:14 10° WNW 15:13:29 31° SW 15:17:49 10° S daylight
29 Jul - 03:15:50 10° SW 03:19:34 81° NW 03:23:18 10° NE visible
29 Jul - 13:32:56 10° NNW 13:37:21 40° NE 13:41:55 10° ESE daylight
29 Jul - 15:14:42 10° W 15:17:45 17° SW 15:20:50 10° SSW daylight
30 Jul - 01:43:00 10° SE 01:43:38 10° SE 01:44:17 10° ESE night (unlit)
30 Jul - 03:20:26 10° WSW 03:23:50 33° NW 03:27:16 10° NNE visible
30 Jul - 13:36:55 10° NW 13:41:38 79° NE 13:46:31 10° SE daylight
31 Jul - 01:44:54 10° S 01:47:55 22° SE 01:50:52 10° ENE night (unlit)
31 Jul - 03:25:48 10° W 03:28:10 16° NW 03:30:33 10° N visible
31 Jul - 12:03:13 10° NNE 12:05:24 13° NE 12:07:36 10° ENE daylight
31 Jul - 13:41:18 10° NW 13:45:53 52° SW 13:50:38 10° SSE daylight
01 Aug - 01:48:28 10° SSW 01:52:10 51° SE 01:55:47 10° NE night (unlit)
01 Aug - 12:05:59 10° N 12:09:44 24° NE 12:13:36 10° ESE daylight
01 Aug - 13:46:10 10° WNW 13:50:09 27° SW 13:54:14 10° S daylight
02 Aug - 01:52:39 10° SW 01:56:25 65° NW 02:00:07 10° NNE night (unlit)
02 Aug - 12:09:36 10° NNW 12:14:02 46° NE 12:18:38 10° SE daylight
02 Aug - 13:51:57 10° W 13:54:25 14° SW 13:56:56 10° SSW daylight
